Location: La Besnardais
(48.0739°N, 1.2904°W)
Time: 00:44:40
(UTC+00:00)

Daily predictions for brighter satellites

Satellite Brightness Start Highest point End
(mag) Time Altitude Azimuth Time Altitude Azimuth Time Altitude Azimuth
ATLAS CENTAUR R/B 4.0 00:02:03 10° NNW 00:03:22 14° NNE 00:05:01 10° ENE
Lacrosse 5 3.8 00:00:52 10° W 00:03:12 15° WSW 00:03:12 15° WSW
STARLINK-1225 4.2 00:00:00 10° W 00:04:05 57° NNW 00:08:11 10° ENE
Cosmos 292 Rocket 3.7 00:03:39 47° SSW 00:05:04 85° WNW 00:09:58 10° NNE
STARLINK-1104 3.5 00:03:56 10° WNW 00:08:03 67° SSW 00:08:12 66° SSW
STARLINK-1230 4.3 00:05:00 10° W 00:09:04 55° NNW 00:13:10 10° ENE
S3M 4.1 00:04:05 10° NNW 00:10:09 64° W 00:12:36 37° SSW
Cosmos 1655 Rocket 4.0 00:07:30 36° SSW 00:10:12 75° W 00:16:29 10° N
Cosmos 1726 1.9 00:06:59 10° NNW 00:10:43 82° W 00:10:54 77° SSW
STARLINK-1235 4.4 00:08:21 10° WNW 00:11:16 37° NNE 00:14:11 10° E
STARLINK-1187 4.5 00:08:46 10° WNW 00:11:40 35° N 00:14:34 10° E
GEOS 3 Rocket 4.1 00:07:39 16° ESE 00:11:41 61° NE 00:16:55 10° NW
STARLINK-1144 3.5 00:08:55 10° WNW 00:13:00 63° SW 00:13:00 63° SW
COSMOS 2455 3.6 00:11:40 31° SE 00:13:16 36° ESE 00:18:42 10° NE
SL-27 R/B 3.6 00:10:14 10° NW 00:13:10 32° W 00:13:10 32° W
STARLINK-1243 4.4 00:10:01 10° W 00:14:05 53° NNW 00:18:09 10° ENE
Cosmos 2228 3.6 00:10:13 10° N 00:14:23 49° ENE 00:15:32 38° ESE
Cosmos 2263 4.1 00:12:24 40° SSW 00:14:30 85° ESE 00:20:09 10° NNE
STARLINK-1103 3.7 00:13:55 10° WNW 00:17:46 57° SW 00:17:46 57° SW
Meteor 2-15 Rocket 4.5 00:11:56 10° N 00:18:07 76° E 00:20:55 34° SSE
Cosmos 1953 2.4 00:15:04 10° NNW 00:19:02 58° W 00:19:26 54° SW
STARLINK-1236 4.4 00:15:02 10° W 00:19:05 51° NNW 00:23:08 10° ENE
Cosmos 1340 Rocket 2.7 00:16:35 10° NNW 00:20:37 76° W 00:21:08 64° SSW
Cosmos 1271 Rocket 3.7 00:21:40 34° W 00:22:25 37° WNW 00:26:03 10° N
STARLINK-1101 3.8 00:18:54 10° WNW 00:22:33 51° WSW 00:22:33 51° WSW
COSMOS 2487 2.6 00:23:32 10° NNW 00:26:59 62° ENE 00:27:18 59° E
Cosmos 1992 Rocket 3.9 00:25:15 42° SSW 00:27:02 84° WNW 00:32:17 10° NNE
Cosmos 1833 4.1 00:22:08 10° NNW 00:27:45 70° WSW 00:29:45 40° S
STARLINK-1102 4.0 00:23:55 10° WNW 00:27:21 46° WSW 00:27:21 46° WSW
Cosmos 1707 3.8 00:29:05 31° W 00:29:52 34° WNW 00:33:29 10° N
STARLINK-1111 4.2 00:28:54 10° WNW 00:32:07 41° WSW 00:32:07 41° WSW
USA 215 4.2 00:33:06 26° SW 00:33:41 26° SW 00:39:01 10° WNW
Cosmos 1626 3.5 00:34:31 26° ESE 00:35:08 28° E 00:38:21 10° NNE
Cosmos 1656 Rocket 3.6 00:33:51 39° SSW 00:36:03 88° ESE 00:41:41 10° NNE
In-Cosmos 22 4.1 00:35:37 39° SSW 00:37:33 69° WNW 00:42:51 10° N
Cosmos 1606 Rocket 3.4 00:33:27 10° N 00:37:48 89° ENE 00:38:48 53° S
STARLINK-1073 4.4 00:33:54 10° WNW 00:36:55 37° WSW 00:36:55 37° WSW
FALCON 9 R/B 3.7 00:38:25 29° SSE 00:39:24 30° SSE 00:51:53 10° E
EO 1 Delta rocket 4.4 00:35:55 10° N 00:42:29 74° WNW 00:44:41 37° SSW
Meteor 1-16 Rocket 4.5 00:38:05 10° NNW 00:43:32 53° W 00:45:20 37° SSW
CZ-4 R/B 3.8 00:39:00 10° NNE 00:43:53 84° WNW 00:45:23 44° SSW
Cosmos 2292 Rocket 4.1 00:45:34 36° WSW 00:46:38 44° W 00:50:12 10° N
Cosmos 2297 Rocket 4.1 00:42:12 10° NNW 00:47:01 27° NE 00:51:47 10° ESE
SL-4 R/B 2.8 00:49:12 42° SSE 00:49:38 43° SE 00:54:09 10° ENE
NOSS 3-2 (C) 4.3 00:42:58 10° NW 00:50:17 52° WSW 00:54:30 29° S
PSLV R/B 3.7 00:47:54 10° N 00:52:32 77° WNW 00:53:53 45° SSW
Cosmos 1674 2.7 00:53:21 54° WSW 00:53:51 61° WNW 00:57:35 10° N
Aureole 3 4.1 00:51:47 10° NNW 00:55:01 31° W 00:55:01 31° W
SL-19 R/B 4.5 00:52:16 10° NNE 00:57:37 60° ESE 01:00:03 33° S
ATLAS CENTAUR R/B 1.7 00:56:56 46° SSE 00:57:43 54° ESE 01:01:48 10° NE
Cosmos 1777 Rocket 4.0 00:53:52 10° NNW 00:59:07 81° ENE 01:01:54 29° SSE
Timation 2 Rocket 4.1 00:52:51 10° NNW 00:59:16 72° ENE 01:04:30 15° SE
BREEZE-M R/B 4.3 01:01:07 26° SE 01:01:07 26° SE 01:03:36 10° E
NOSS 3-4 (A) 3.4 00:57:31 32° SW 01:00:30 90° ESE 01:06:56 10° NE
NOSS 3-4 (C) 3.4 00:57:37 32° SW 01:00:36 89° SE 01:07:02 10° NE
SL-16 R/B 3.3 00:56:01 12° SE 01:01:30 49° ENE 01:07:25 10° N
Spot 1 4.3 01:00:54 35° SSE 01:02:50 82° ENE 01:07:43 10° NNW
ATLAS 3B R/B 2.6 00:59:30 10° NW 01:06:19 82° SW 01:12:42 13° SSE
CENTAUR R/B 3.5 01:02:21 10° NW 01:10:04 48° WSW 01:14:47 26° S
Cosmos 1244 Rocket 4.4 01:07:54 33° S 01:10:57 86° W 01:17:12 10° N
BREEZE-M DEB (TANK) 2.3 01:12:38 36° E 01:12:38 36° E 01:14:09 10° ENE
Cosmos 1867 3.8 01:09:29 10° NW 01:14:46 51° WSW 01:16:44 34° S
Meteor 2-21 Rocket 4.5 01:11:40 31° S 01:14:48 81° E 01:21:00 10° NNE
Cosmos 1908 4.2 01:11:26 10° NNW 01:14:51 31° W 01:15:09 31° WSW
Cosmos 1892 Rocket 3.6 01:14:51 42° SSW 01:16:13 69° W 01:20:37 10° N
Cosmos 1745 Rocket 4.4 01:12:45 24° SSE 01:16:21 57° E 01:22:20 10° NNE
RESURS DK-1 2.7 01:19:17 39° SSE 01:20:23 52° ESE 01:24:26 10° NE
STARLINK-1218 4.5 01:18:08 10° WNW 01:22:12 52° NNE 01:26:16 10° E
Cosmos 2227 Rocket 3.5 01:17:32 10° NNW 01:22:53 40° NE 01:28:12 10° ESE
Cosmos 1356 Rocket 3.8 01:19:33 10° N 01:23:40 61° ENE 01:25:49 27° SSE
Meteor 1-24 Rocket 3.5 01:22:03 34° SSW 01:24:26 81° WNW 01:29:52 10° N
Cosmos 2369 Rocket 3.9 01:20:44 10° WSW 01:25:24 27° NW 01:30:09 10° N
Cosmos 1726 Rocket 4.3 01:21:50 10° NNW 01:25:49 36° W 01:26:45 32° WSW
Meteor 2-14 Rocket 4.5 01:24:00 31° SSW 01:27:05 72° W 01:33:14 10° N
STARLINK-1254 4.4 01:23:08 10° WNW 01:27:13 54° NNE 01:31:17 10° E
CZ-2D R/B 2.8 01:22:12 10° NNE 01:27:17 47° E 01:30:15 23° SSE
Helios 1B rocket 3.7 01:24:00 10° N 01:27:40 31° WNW 01:29:11 24° WSW
ATLAS 2AS CENTAUR R/B 3.3 01:23:17 19° SW 01:29:22 68° NW 01:37:16 10° NE
ADEOS II 4.0 01:25:44 10° NE 01:29:41 21° E 01:33:36 10° SE
STARLINK-1231 4.3 01:28:08 10° WNW 01:32:14 56° NNE 01:36:19 10° E
CZ-4C R/B 3.5 01:30:46 30° SSE 01:32:48 83° ENE 01:37:11 10° NNW
STARLINK-1228 2.9 01:30:44 10° WNW 01:34:05 75° SSW 01:37:25 10° SE
STARLINK-1234 2.7 01:32:11 10° WNW 01:35:19 76° SSW 01:37:02 24° SE
DELTA 2 DEB (DPAF) 4.1 01:34:11 35° S 01:35:57 65° WSW 01:40:24 10° NNW
Cosmos 1943 Rocket 4.4 01:32:29 10° W 01:36:18 18° NW 01:40:10 10° N
STARLINK-1212 2.8 01:33:32 10° WNW 01:36:40 87° NNE 01:39:46 10° ESE
Resurs 1-4 Rocket 2.5 01:31:52 10° NNE 01:37:06 58° E 01:40:11 24° S
STARLINK-1105 2.7 01:34:01 10° WNW 01:37:07 87° NNE 01:40:13 10° ESE
STARLINK-1232 4.2 01:33:07 10° WNW 01:37:14 58° NNE 01:41:20 10° E
STARLINK-1209 2.7 01:34:26 10° WNW 01:37:35 69° SSW 01:38:42 36° SE
Meteor 2-5 Rocket 4.2 01:35:17 27° SW 01:37:59 49° WNW 01:43:25 10° N
STARLINK-1247 2.8 01:34:55 10° WNW 01:38:03 88° NNE 01:41:11 10° ESE
STARLINK-1227 2.7 01:35:23 10° WNW 01:38:30 89° NE 01:41:36 10° ESE
STARLINK-1226 2.7 01:36:14 10° WNW 01:39:22 90° SSE 01:42:29 10° ESE
STARLINK-52 3.4 01:39:41 43° SSE 01:39:44 43° SE 01:42:49 10° ENE
STARLINK-1215 2.7 01:37:11 10° WNW 01:40:19 89° SSW 01:43:26 10° ESE
STARLINK-1217 2.7 01:38:57 10° WNW 01:42:04 86° SSW 01:45:11 10° ESE
STARLINK-1208 4.2 01:38:05 10° WNW 01:42:12 61° NNE 01:46:18 10° E
STARLINK-1229 2.7 01:39:52 10° WNW 01:43:00 85° SSW 01:46:07 10° ESE
STARLINK-1270 2.7 01:40:43 10° WNW 01:43:51 84° SSW 01:46:59 10° ESE
NPP 4.0 01:39:12 10° NNE 01:44:32 58° E 01:47:57 22° S
STARLINK-1189 2.7 01:42:34 10° WNW 01:45:42 82° SSW 01:48:49 10° ESE
STARLINK-1188 2.7 01:43:27 10° WNW 01:46:35 81° SSW 01:49:42 10° ESE
STARLINK-1271 4.1 01:43:05 10° WNW 01:47:13 63° NNE 01:51:20 10° ESE
STARLINK-1235 2.7 01:44:09 10° WNW 01:47:14 64° SSW 01:50:18 10° SE
STARLINK-1187 2.7 01:44:34 10° WNW 01:47:40 71° SSW 01:50:45 10° SE
Cosmos 1898 Rocket 4.5 01:43:09 10° NNW 01:48:21 48° ENE 01:53:28 10° SE
STARLINK-1191 2.6 01:45:56 10° WNW 01:49:02 77° SSW 01:52:07 10° ESE
Starlink 7 placeholder 3.4 01:49:43 35° NNE 01:49:43 35° NNE 01:51:10 10° NE
Lacrosse 4 Rocket 4.2 01:46:09 10° N 01:49:35 22° NE 01:52:56 10° E
Cosmos 2058 Rocket 4.0 01:45:45 10° NNW 01:49:42 33° W 01:51:01 27° SW
STARLINK-1221 2.7 01:46:48 10° WNW 01:49:54 76° SSW 01:53:00 10° ESE
GEOS 3 Rocket 4.4 01:48:43 28° SW 01:49:58 31° WSW 01:54:37 10° WNW
STARLINK-1222 2.7 01:47:42 10° WNW 01:50:48 75° SSW 01:53:54 10° SE
STARLINK-1214 2.6 01:48:36 10° WNW 01:51:42 74° SSW 01:54:47 10° SE
STARLINK-1154 4.0 01:48:04 10° WNW 01:52:12 66° NNE 01:56:20 10° ESE
CZ-4C R/B 3.9 01:50:43 12° SSE 01:53:56 20° ESE 01:57:56 10° ENE
SJ 16-02 2.0 01:49:37 10° NNW 01:54:00 54° ENE 01:58:20 10° SE
Cosmos 2084 3.8 01:52:18 31° SSW 01:54:14 58° SE 01:58:39 10° NE
SL-14 R/B 4.2 01:54:05 27° WSW 01:55:23 35° WNW 01:58:58 10° N
SL-08 ROCKET BODY 4.3 01:52:04 25° SSW 01:55:38 79° W 02:01:32 10° N
STARLINK-1197 3.9 01:53:02 10° WNW 01:57:11 70° NNE 02:01:20 10° ESE
COSMOS 2455 3.5 01:54:47 18° WSW 01:59:03 50° NW 02:04:56 10° NNE
Cosmos 1300 3.7 01:55:47 10° NNW 01:59:09 30° W 02:00:00 27° WSW
Meteor 2-10 Rocket 3.7 01:55:48 10° N 02:01:11 73° ENE 02:06:01 12° SSE
STARLINK-1198 3.8 01:57:59 10° WNW 02:02:09 73° NNE 02:06:18 10° ESE
Cosmos 921 Rocket 3.3 02:00:21 29° SW 02:02:20 56° WNW 02:06:36 10° NNE
Cosmos 1709 Rocket 4.1 02:01:48 18° S 02:06:26 75° E 02:12:33 10° NNE
Cosmos 1386 Rocket 4.5 02:02:41 23° SSW 02:06:32 69° W 02:12:42 10° N
STARLINK-1199 3.7 02:03:00 10° WNW 02:07:10 77° NNE 02:11:19 10° ESE
Cosmos 1626 Rocket 3.8 02:06:42 27° SW 02:08:49 55° WNW 02:13:06 10° N
Cosmos 1626 3.7 02:09:03 19° WSW 02:10:23 23° WNW 02:13:24 10° NNW
STARLINK-60 3.4 02:08:52 22° W 02:10:44 58° NNW 02:13:54 10° ENE
STARLINK-1210 3.7 02:07:58 10° WNW 02:12:08 81° NNE 02:16:17 10° ESE
STARLINK-1320 4.0 02:14:52 26° S 02:15:36 30° SE 02:18:24 10° ENE
STARLINK-1322 4.0 02:15:11 27° S 02:15:57 30° SE 02:18:44 10° ENE
Cosmos 2219 3.2 02:10:19 10° NNW 02:15:57 67° WSW 02:21:32 10° SSE
STARLINK-1324 4.0 02:15:32 27° S 02:16:18 30° SE 02:19:06 10° ENE
STARLINK-1294 4.0 02:15:47 27° S 02:16:34 31° SE 02:19:24 10° ENE
STARLINK-1261 4.0 02:16:09 27° S 02:16:57 31° SE 02:19:45 10° ENE
STARLINK-1219 3.6 02:12:57 10° WNW 02:17:07 86° NNE 02:21:16 10° ESE
STARLINK-1325 3.9 02:16:30 27° S 02:17:18 31° SE 02:20:07 10° ENE
STARLINK-1333 3.9 02:16:48 27° S 02:17:37 31° SE 02:20:26 10° ENE
STARLINK-1334 3.9 02:17:07 27° S 02:17:57 31° SE 02:20:46 10° ENE
STARLINK-1326 3.9 02:17:28 27° S 02:18:18 32° SE 02:21:08 10° ENE
STARLINK-1323 3.9 02:17:47 27° S 02:18:38 32° SE 02:21:28 10° ENE
STARLINK-1338 4.2 02:17:39 25° S 02:18:52 32° SE 02:22:00 10° ENE
STARLINK-1349 3.9 02:18:06 27° S 02:18:58 32° SE 02:21:48 10° ENE
STARLINK-1336 3.9 02:18:28 27° S 02:19:19 32° SE 02:22:10 10° ENE
Cosmos 1980 Rocket 4.2 02:15:23 10° SSE 02:19:28 21° E 02:23:32 10° NE
STARLINK-1331 3.9 02:18:45 27° S 02:19:38 32° SE 02:22:29 10° ENE
STARLINK-1344 3.9 02:19:05 27° S 02:19:58 33° SE 02:22:50 10° ENE
STARLINK-1343 3.9 02:19:25 27° S 02:20:19 33° SE 02:23:10 10° ENE
STARLINK-1346 3.9 02:19:43 27° S 02:20:40 33° SE 02:23:33 10° ENE
STARLINK-1328 3.8 02:20:05 27° S 02:21:00 33° SE 02:23:52 10° ENE
STARLINK-1354 3.8 02:20:22 27° S 02:21:18 33° SE 02:24:10 10° ENE
STARLINK-1347 3.8 02:20:44 27° S 02:21:41 34° SE 02:24:33 10° ENE
STARLINK-1357 3.8 02:21:01 27° S 02:21:59 34° SE 02:24:51 10° ENE
STARLINK-1211 3.6 02:17:55 10° WNW 02:22:05 90° SSW 02:26:14 10° ESE
STARLINK-1335 3.8 02:21:22 27° S 02:22:20 34° SE 02:25:12 10° ENE
Cosmos 1328 4.4 02:19:19 15° SSE 02:22:24 53° E 02:26:18 10° NNE
STARLINK-1327 3.8 02:21:41 27° S 02:22:39 34° SE 02:25:32 10° ENE
STARLINK-1371 4.1 02:21:31 25° S 02:22:52 34° SE 02:26:05 10° ENE
STARLINK-1340 3.8 02:22:01 27° S 02:23:01 34° SE 02:25:54 10° ENE
STARLINK-1356 3.8 02:22:21 27° S 02:23:21 35° SE 02:26:14 10° ENE
STARLINK-1345 3.8 02:22:40 27° S 02:23:42 35° SE 02:26:35 10° ENE
Cosmos 192 4.3 02:20:35 21° SSW 02:23:53 87° WNW 02:28:53 10° NNE
STARLINK-1355 3.8 02:22:59 27° S 02:24:01 35° SE 02:26:55 10° ENE
STARLINK-1321 3.7 02:23:18 27° S 02:24:21 35° SE 02:27:15 10° ENE
STARLINK-1358 3.7 02:23:39 27° S 02:24:42 36° SE 02:27:36 10° ENE
UNK 4.3 02:22:20 22° SSW 02:24:48 38° W 02:29:08 10° NNW
STARLINK-1341 4.0 02:23:29 24° S 02:24:54 36° SE 02:28:09 10° ENE
STARLINK-1332 3.7 02:23:57 27° S 02:25:01 36° SE 02:27:55 10° ENE
ERS-2 3.8 02:21:53 10° SE 02:25:14 35° ENE 02:28:36 10° N
STARLINK-1348 3.7 02:24:18 27° S 02:25:23 36° SE 02:28:17 10° ENE
STARLINK-1330 3.7 02:24:36 27° S 02:25:42 36° SE 02:28:36 10° ENE
Cosmos 1437 4.4 02:24:54 17° W 02:25:49 19° WNW 02:28:04 10° NNW
STARLINK-1363 3.7 02:24:56 27° S 02:26:02 36° SE 02:28:56 10° ENE
STARLINK-1337 3.7 02:25:15 27° S 02:26:22 37° SE 02:29:17 10° ENE
STARLINK-1342 3.7 02:25:35 27° S 02:26:43 37° SE 02:29:37 10° ENE
STARLINK-1374 4.0 02:25:26 24° SSW 02:26:57 37° SE 02:30:13 10° ENE
STARLINK-1364 3.7 02:25:55 26° S 02:27:03 37° SE 02:29:58 10° ENE
STARLINK-1245 3.5 02:22:55 10° WNW 02:27:05 85° SSW 02:31:14 10° ESE
STARLINK-1376 3.7 02:26:15 26° S 02:27:24 37° SE 02:30:20 10° ENE
STARLINK-1360 3.7 02:26:30 26° S 02:27:40 38° SE 02:30:36 10° ENE
STARLINK-1361 3.6 02:26:56 26° SSW 02:28:06 38° SE 02:31:02 10° ENE
STARLINK-1367 3.6 02:27:10 26° SSW 02:28:22 38° SE 02:31:20 10° ENE
STARLINK-1366 3.6 02:27:33 26° SSW 02:28:44 38° SE 02:31:41 10° ENE
AQUA 3.8 02:24:01 10° N 02:28:46 72° WNW 02:32:11 19° SSW
Cosmos 1812 Rocket 4.1 02:24:37 10° NNW 02:28:52 43° W 02:31:38 20° SSW
STARLINK-1339 3.9 02:27:27 24° SSW 02:29:02 38° SE 02:32:19 10° ENE
SL-4 R/B 2.6 02:24:45 12° WSW 02:29:17 72° NNW 02:33:58 10° ENE
STARLINK-1377 3.9 02:29:28 23° SSW 02:31:07 40° SE 02:34:26 10° ENE
CZ-4B R/B 3.6 02:26:12 10° N 02:31:18 68° WNW 02:35:13 18° SSW
Cosmos 2297 Rocket 2.2 02:25:54 10° NNW 02:31:29 63° WSW 02:37:02 10° SSE
STARLINK-1233 3.5 02:27:53 10° WNW 02:32:03 80° SSW 02:36:11 10° ESE
STARLINK-1353 3.8 02:31:17 23° SSW 02:32:58 41° SE 02:36:16 10° ENE
STARLINK-1375 3.8 02:33:04 23° SSW 02:34:49 42° SE 02:38:09 10° ENE
Cosmos 2082 3.9 02:29:31 10° NNW 02:35:14 77° ENE 02:40:51 10° SSE
ATLAS CENTAUR R/B 3.1 02:33:12 10° W 02:36:51 26° NW 02:40:19 10° NNE
STARLINK-1204 3.5 02:32:53 10° WNW 02:37:02 76° SSW 02:41:10 10° SE
STARLINK-1350 3.7 02:35:22 22° SSW 02:37:12 44° SE 02:40:33 10° ENE
Cosmos 990 Rocket 4.0 02:32:08 10° NNW 02:37:23 70° WSW 02:42:36 10° SSE
FALCON 9 DEB 3.1 02:35:24 20° WSW 02:37:38 87° SSE 02:41:06 10° ENE
CBERS-1 4.0 02:33:01 10° NNE 02:38:10 85° WNW 02:42:29 15° SSW
OE (NEXTSAT) 4.4 02:36:54 18° WSW 02:39:21 59° S 02:42:47 10° E
STARLINK-29 3.3 02:36:59 16° WSW 02:39:22 63° NNW 02:42:33 10° ENE
STARLINK-1352 3.7 02:37:40 22° SSW 02:39:38 46° SE 02:43:01 10° ENE
Cosmos 1455 2.5 02:38:01 10° NNW 02:41:39 46° W 02:44:16 17° SSW
Cosmos 1602 Rocket 4.5 02:39:06 18° SW 02:41:44 33° WNW 02:45:42 10° N
Cosmos 1825 Rocket 3.5 02:38:21 16° SSW 02:41:46 81° W 02:46:07 10° N
STARLINK-1368 3.6 02:39:45 21° SSW 02:41:48 48° SE 02:45:12 10° ENE
STARLINK-1238 3.5 02:37:50 10° WNW 02:41:59 71° SSW 02:46:06 10° SE
STARLINK-1369 3.6 02:41:37 21° SSW 02:43:42 50° SE 02:47:06 10° ENE
STARLINK-1239 4.5 02:40:06 10° WNW 02:44:10 53° NNE 02:48:15 10° E
Meteor 1-28 Rocket 3.9 02:41:18 10° SSE 02:44:59 54° ENE 02:48:41 10° N
SL-16 R/B 3.3 02:41:06 16° SSW 02:45:19 33° W 02:50:49 10° NNW
ATLAS CENTAUR R/B 2.4 02:42:31 10° WNW 02:45:30 45° SW 02:52:06 10° SSE
STARLINK-1372 3.5 02:43:57 20° SW 02:46:10 52° SE 02:49:37 10° ENE
Cosmos 2263 Rocket 4.4 02:41:57 10° NNW 02:46:51 29° NE 02:51:41 10° ESE
STARLINK-1201 3.5 02:42:51 10° WNW 02:46:58 66° SSW 02:51:04 10° SE
Cosmos 2074 Rocket 4.4 02:41:36 10° S 02:47:47 64° E 02:54:00 10° NNE
STARLINK-1378 3.5 02:46:05 19° SW 02:48:23 54° SSE 02:51:51 10° ENE
STARLINK-1329 3.5 02:46:35 19° SW 02:48:54 55° SSE 02:52:24 10° ENE
STARLINK-1240 4.4 02:45:06 10° WNW 02:49:11 55° NNE 02:53:16 10° E
STARLINK-1365 3.4 02:47:17 19° SW 02:49:38 57° SSE 02:53:06 10° ENE
Cosmos 841 Rocket 4.2 02:44:38 10° S 02:49:43 51° ESE 02:54:47 10° NNE
GP-B 3.4 02:45:42 10° N 02:50:00 50° W 02:53:37 14° SSW
STARLINK-1379 3.4 02:48:13 18° SW 02:50:36 56° SSE 02:54:05 10° ENE
IRS-1D 3.7 02:45:45 10° N 02:51:04 68° WNW 02:55:45 13° SSW
STARLINK-1362 3.4 02:48:47 18° SW 02:51:11 57° SSE 02:54:41 10° ENE
STARLINK-1206 3.6 02:47:50 10° WNW 02:51:56 61° SSW 02:56:01 10° SE
Cosmos-2242 3.2 02:49:03 10° NNW 02:53:13 53° W 02:57:20 10° S
STARLINK-1373 3.4 02:50:59 18° SW 02:53:29 59° SSE 02:57:00 10° ENE
STARLINK-1216 4.3 02:50:04 10° WNW 02:54:11 57° NNE 02:58:16 10° E
Cosmos 1400 Rocket 3.1 02:50:15 10° N 02:54:23 72° ENE 02:58:30 10° SSE
COBE Rocket 4.1 02:50:07 10° SSE 02:55:01 78° ENE 03:00:06 10° N
Cosmos 2221 4.1 02:51:05 10° N 02:55:07 37° ENE 02:59:08 10° SE
STARLINK-1390 3.3 02:52:59 17° SW 02:55:32 61° SSE 02:59:02 10° ENE
ATLAS 3B R/B 4.0 02:51:35 10° WNW 02:56:06 19° WSW 02:59:50 12° SW
STARLINK-1205 3.6 02:52:49 10° WNW 02:56:54 57° SW 03:00:58 10° SE
RESURS DK-1 4.2 02:55:30 10° W 02:58:42 21° NW 03:01:57 10° N
STARLINK-1237 4.3 02:55:04 10° WNW 02:59:11 60° NNE 03:03:17 10° E
Cosmos 2184 Rocket 4.2 02:53:08 10° S 02:59:17 74° E 03:05:27 10° NNE
SL-08 R/B 3.3 02:55:52 10° S 03:00:33 67° WSW 03:05:12 10° NNW
CZ-4C R/B 4.0 02:57:27 10° SSE 03:00:56 51° ENE 03:04:30 10° N
STARLINK-1218 3.7 02:57:48 10° WNW 03:01:51 53° SW 03:05:53 10° SE
STARLINK-1202 4.2 03:00:03 10° WNW 03:04:11 62° NNE 03:08:18 10° ESE
Cosmos 1703 3.7 03:02:09 13° SSW 03:05:25 46° WNW 03:09:15 10° N
IRS-P3 4.2 03:01:21 10° N 03:06:41 70° WNW 03:11:58 10° SSW
STARLINK-1254 3.8 03:02:48 10° WNW 03:06:49 49° SW 03:10:49 10° SE
Cosmos 2227 Rocket 2.7 03:01:42 10° NW 03:06:56 39° WSW 03:12:08 10° S
CZ-2D R/B 3.3 03:02:40 10° N 03:07:08 28° WNW 03:11:32 10° WSW
Cosmos 2181 Rocket 4.4 03:01:38 10° NNW 03:07:47 50° W 03:13:56 10° SSW
Cosmos 1763 Rocket 3.6 03:03:46 12° SW 03:08:27 65° WNW 03:13:31 10° NNE
ADEOS II 2.3 03:04:36 10° N 03:09:47 61° WNW 03:14:57 10° SSW
Cosmos 1697 Rocket 2.8 03:04:56 11° SSW 03:10:30 88° ESE 03:16:13 10° NNE
STARLINK-1231 3.9 03:07:49 10° WNW 03:11:48 46° SW 03:15:46 10° SE
STARLINK-1212 4.5 03:10:06 10° W 03:12:06 16° SW 03:14:05 10° S
STARLINK-1105 4.5 03:10:36 10° W 03:12:33 16° SW 03:14:31 10° S
STARLINK-1246 4.0 03:10:01 10° WNW 03:14:09 68° NNE 03:18:17 10° ESE
Cosmos 1315 Rocket 4.1 03:10:37 10° N 03:14:23 43° ENE 03:18:07 10° SSE
STARLINK-52 3.9 03:12:47 10° W 03:15:53 45° NNW 03:19:00 10° ENE
CZ-2C R/B 3.7 03:12:58 10° NNE 03:16:33 45° E 03:20:08 10° S
Resurs 1-4 Rocket 3.6 03:12:23 10° N 03:16:33 24° WNW 03:20:43 10° WSW
STARLINK-1232 4.0 03:12:49 10° WNW 03:16:46 42° SW 03:20:40 10° SSE
STARLINK-1224 3.9 03:14:58 10° WNW 03:19:08 72° NNE 03:23:16 10° ESE
H-2A R/B 2.1 03:17:05 10° S 03:21:22 76° WSW 03:25:49 10° NNW
ARIANE 5 R/B 2.5 03:16:17 10° N 03:21:22 74° WNW 03:26:22 10° SSW
STARLINK-1208 4.1 03:17:48 10° WNW 03:21:41 39° SW 03:25:33 10° SSE
BREEZE-M R/B 2.2 03:19:16 10° W 03:22:59 76° NNW 03:25:30 10° ENE
Starlink 7 placeholder 4.5 03:21:48 10° NW 03:23:19 19° N 03:24:52 10° NE
STARLINK-1225 3.9 03:19:58 10° WNW 03:24:08 76° NNE 03:28:17 10° ESE
STARLINK-1271 4.2 03:22:50 10° WNW 03:26:40 36° SW 03:30:28 10° SSE
Spot 4 Rocket 4.1 03:22:06 10° NNE 03:27:17 88° WNW 03:32:25 10° SSW
BREEZE-M DEB (TANK) 2.3 03:25:35 10° W 03:27:26 22° SSW 03:29:20 10° SSE
Lacrosse 4 Rocket 1.5 03:24:22 10° NW 03:28:40 62° WSW 03:32:50 10° SSE
STARLINK-1230 3.8 03:24:57 10° WNW 03:29:07 80° NNE 03:33:16 10° ESE
Meteor 1-27 4.2 03:24:14 10° NNW 03:29:46 68° W 03:35:16 10° S
USA 129 2.3 03:29:03 10° NNE 03:31:04 42° E 03:32:32 10° S
Cosmos 2154 Rocket 4.2 03:24:57 10° S 03:31:16 82° E 03:37:32 10° N
STARLINK-1154 4.3 03:27:52 10° WNW 03:31:37 34° SW 03:35:22 10° SSE
SJ 16-02 2.9 03:29:11 10° NW 03:32:09 18° W 03:35:06 10° SW
Cosmos 2058 4.1 03:28:33 10° SSE 03:32:32 44° E 03:36:33 10° NNE
Cosmos 2298 Rocket 4.1 03:27:23 10° NNW 03:32:44 87° WSW 03:38:02 10° SSE
STARLINK-1243 3.7 03:29:56 10° WNW 03:34:05 84° NNE 03:38:15 10° ESE
IDEFIX/ARIANE 42P 2.8 03:29:57 10° NNE 03:35:17 80° ESE 03:40:33 10° SSW
Cosmos 1953 Rocket 4.5 03:32:22 10° SW 03:36:28 35° WNW 03:40:33 10° N
